Location: Contre
(49.7477°N, 2.0963°E)
Time: 12:54:22
(UTC+00:00)

Daily predictions for brighter satellites

Satellite Brightness Start Highest point End
(mag) Time Altitude Azimuth Time Altitude Azimuth Time Altitude Azimuth
BREEZE-M DEB (TANK) 3.0 17:17:18 10° WSW 17:20:06 47° SSE 17:25:20 10° E
Cosmos 407 Rocket 3.6 17:15:47 10° S 17:20:49 58° ESE 17:25:51 10° NNE
ATLAS CENTAUR R/B 1.8 17:17:12 10° SW 17:21:55 81° NW 17:26:29 10° NE
Cosmos 1544 Rocket 4.0 17:22:03 10° NNW 17:26:22 68° W 17:30:39 10° S
Cosmos 1726 Rocket 4.5 17:25:02 10° NNE 17:28:42 26° ENE 17:32:21 10° SE
Cosmos 1140 Rocket 3.5 17:24:20 10° SSW 17:29:29 80° ESE 17:34:40 10° NNE
ISS -2.2 17:29:07 10° W 17:32:15 37° SSW 17:35:24 10° SE
Cosmos 1655 Rocket 4.0 17:26:58 10° N 17:33:17 84° E 17:39:30 10° S
DMSP B5D2-2 4.2 17:29:01 10° NNE 17:34:15 57° E 17:39:25 10° S
SL-08 ROCKET BODY 4.4 17:32:12 10° N 17:38:01 59° ENE 17:43:47 10° SSE
Cosmos 1190 Rocket 4.2 17:35:36 10° S 17:40:45 55° ESE 17:45:56 10° NNE
Meteor PRIRODA 3.9 17:37:33 10° S 17:41:04 70° WSW 17:44:38 10° NNW
USA 290 3.2 17:39:09 10° SW 17:42:17 48° WNW 17:45:26 10° NNE
Cosmos 1633 3.8 17:41:11 10° SE 17:43:31 18° E 17:45:52 10° NE
Cosmos 1461 4.1 17:40:18 10° S 17:43:49 25° ESE 17:47:00 12° ENE
Cosmos 2266 Rocket 4.3 17:38:01 10° NNW 17:44:18 74° W 17:50:26 10° S
Cosmos 1408 2.3 17:41:47 10° S 17:45:09 66° E 17:48:35 10° NNE
Okean O Rocket 2.9 17:42:18 10° ESE 17:45:32 20° ENE 17:48:48 10° NNE
Cosmos 1844 Rocket 2.8 17:41:49 10° NNW 17:47:20 56° NE 17:52:47 10° SE
Cosmos 1328 3.7 17:45:26 10° S 17:49:24 80° E 17:53:22 10° NNE
Lacrosse 5 rocket 1.3 17:49:35 10° NW 17:53:03 48° NNE 17:55:52 15° E
NOAA 6 4.4 17:48:15 10° S 17:53:24 71° WSW 17:58:36 10° NNW
DELTA 2 DEB (DPAF) 4.2 17:49:31 10° NNE 17:53:57 84° WNW 17:58:20 10° SSW
Meteor 1-11 4.5 17:48:47 10° SSE 17:54:22 51° E 17:59:57 10° NNE
CZ-4B DEB 4.2 17:49:14 10° SSE 17:54:37 67° ENE 18:00:04 10° N
CZ-4B R/B 3.6 17:52:09 10° SE 17:57:07 40° ENE 18:02:11 10° N
SKYMED 2 3.5 17:57:28 10° NNE 18:01:49 68° ESE 18:06:08 10° S
Cosmos 1553 Rocket 4.4 17:56:44 10° SSE 18:02:17 38° E 18:07:54 10° NNE
Cosmos 1844 3.7 17:57:34 10° NNW 18:03:22 64° ENE 18:09:05 10° SE
CZ-4 R/B 2.2 18:02:25 10° SE 18:05:59 29° ENE 18:09:31 10° N
Cosmos 468 Rocket 3.9 18:01:00 10° NNW 18:06:13 77° ENE 18:11:21 10° SSE
Cosmos 2058 Rocket 3.6 18:02:14 10° N 18:06:18 35° ENE 18:10:22 10° SE
Cosmos 1892 2.5 18:03:17 10° S 18:07:00 76° E 18:10:46 10° NNE
Cosmos 2278 4.1 18:03:19 10° SW 18:08:57 64° WNW 18:14:39 10° NNE
CZ-4C R/B 3.1 18:05:31 10° NNE 18:09:22 65° ESE 18:13:00 10° S
Cosmos 2360 Rocket 2.6 18:05:51 10° S 18:11:05 41° ESE 18:15:52 12° NE
Cosmos 2219 Rocket 3.4 18:07:33 10° SE 18:11:27 20° E 18:12:21 19° E
YAOGAN 1 2.6 18:08:31 10° SSE 18:12:44 53° ENE 18:16:57 10° N
RESURS DK-1 2.3 18:11:52 10° NNW 18:15:59 64° ENE 18:20:03 10° SE
Cosmos 1825 2.0 18:13:20 10° S 18:16:58 61° E 18:20:38 10° NNE
Cosmos 1954 Rocket 3.9 18:13:03 10° SSW 18:18:17 77° ESE 18:23:31 10° NNE
Cosmos 2278 Rocket 3.5 18:14:09 10° N 18:18:18 20° NE 18:19:41 19° ENE
Cosmos 2333 Rocket 2.9 18:14:28 10° SSE 18:19:24 32° ESE 18:22:21 20° ENE
IGS 5A 4.3 18:20:50 26° E 18:21:43 28° ENE 18:25:16 10° N
APEX 4.5 18:16:34 10° SW 18:22:36 72° WNW 18:28:08 10° NNE
MOS 1-B 4.3 18:17:14 10° SSE 18:22:58 67° ENE 18:28:45 10° NNW
Cosmos 2322 Rocket 2.1 18:17:37 10° SSW 18:23:10 70° ESE 18:28:47 10° NNE
Cosmos 1763 Rocket 3.9 18:18:17 10° NNW 18:23:26 65° WSW 18:28:30 10° S
USA 215 4.5 18:18:11 10° SSE 18:24:19 42° SW 18:30:30 10° WNW
Meteor 2-12 Rocket 4.3 18:18:59 10° N 18:25:07 80° E 18:31:11 10° SSE
Cosmos 1850 Rocket 4.5 18:25:29 10° SSE 18:30:10 36° ESE 18:32:18 25° ENE
ATLAS 2AS CENTAUR R/B 3.3 18:24:35 10° NW 18:31:26 58° WSW 18:37:54 10° SSE
BlueWalker 3 2.4 18:27:57 10° WNW 18:31:45 49° N 18:33:03 34° NE
SL-4 R/B 1.7 18:28:28 10° WNW 18:31:59 65° N 18:33:04 41° ENE
Lacrosse 5 1.8 18:28:06 10° SW 18:33:11 74° SE 18:35:50 29° ENE
Cosmos 1606 Rocket 4.2 18:30:18 10° NNW 18:34:32 57° W 18:38:46 10° S
IRIDIUM 104 4.2 18:29:20 10° N 18:34:34 70° E 18:39:46 10° SSE
COSMOS 2428 4.4 18:30:57 10° SE 18:32:20 14° SE 18:32:20 14° SE
ATLAS 5 CENTAUR R/B 3.8 18:33:22 10° NW 18:35:55 15° N 18:37:52 12° NNE
Cosmos 841 Rocket 3.4 18:30:51 10° NNW 18:36:09 69° ENE 18:41:22 10° SSE
S3M 4.3 18:31:30 10° SSE 18:37:27 43° E 18:43:26 10° NNE
Cosmos 540 Rocket 3.6 18:32:24 10° NNW 18:37:35 75° WSW 18:42:40 10° SSE
Feng Yun 1-1 Rocket 4.2 18:32:19 10° SE 18:37:43 56° ENE 18:43:02 10° N
SL-16 R/B 2.5 18:32:11 10° SW 18:37:49 70° WNW 18:43:31 10° NNE
Cosmos 1741 Rocket 4.4 18:33:04 10° S 18:38:01 40° ESE 18:40:08 28° ENE
Cosmos 1340 2.4 18:34:22 10° N 18:38:02 66° ENE 18:41:41 10° SSE
In-Cosmos 22 Rocket 4.2 18:32:33 10° S 18:38:23 88° ESE 18:44:15 10° NNE
Cosmos 1606 4.0 18:36:34 10° N 18:38:34 24° NNE 18:38:34 24° NNE
Cosmos 2333 4.5 18:35:14 10° S 18:40:29 44° ESE 18:42:55 28° ENE
IRIDIUM 114 4.2 18:38:27 10° N 18:43:42 83° E 18:48:56 10° S
Gblst 52 Del rocket 4.0 18:38:45 10° WSW 18:44:22 87° SSE 18:46:47 35° ENE
MINOTAUR 4 R/B 3.8 18:46:22 56° NE 18:46:56 71° ESE 18:50:20 10° S
COSMOS 2455 4.5 18:42:29 10° W 18:47:38 29° NNW 18:52:50 10° NNE
Cosmos 1892 Rocket 3.5 18:43:46 10° S 18:48:11 86° W 18:52:36 10° N
CSL-04 Rocket 4.0 18:47:08 35° E 18:48:26 41° ENE 18:53:28 10° N
COSMO-SKYMED 1 3.8 18:45:38 10° N 18:49:45 42° WNW 18:53:50 10° SW
Cosmos 1980 Rocket 4.2 18:46:04 10° W 18:50:31 23° NW 18:55:00 10° NNE
Spot 1 4.1 18:51:48 47° ESE 18:51:48 47° ESE 18:55:20 10° S
IRIDIUM 103 4.3 18:47:37 10° N 18:52:53 83° W 18:58:05 10° S
Cosmos 2315 Rocket 4.4 18:51:09 10° SSE 18:56:53 38° E 19:02:40 10° NNE
Resurs 01 Rocket 4.0 19:00:01 11° NNE 19:00:01 11° NNE 19:00:16 10° NNE
Cosmos 1943 Rocket 3.9 18:54:36 10° N 18:57:55 17° NNE 18:57:55 17° NNE
Genesis I 3.1 18:56:00 10° SSW 18:59:51 69° SE 18:59:51 69° SE
Cosmos 2322 4.3 18:55:52 10° S 19:00:25 37° SE 19:00:25 37° SE
ATLAS CENTAUR R/B 3.6 18:57:31 10° W 19:01:06 22° NNW 19:03:35 14° NNE
Cosmos 1869 4.0 19:00:39 10° NNW 19:04:26 51° W 19:08:15 10° S
Lacrosse 4 Rocket 4.0 19:13:15 10° N 19:13:42 11° N 19:13:42 11° N
Cosmos 1633 4.2 19:14:26 10° SW 19:17:26 30° WNW 19:19:32 16° NNW
Okean O Rocket 2.2 19:17:12 10° S 19:21:30 56° W 19:25:52 10° NNW
Cosmos 1745 Rocket 4.1 19:15:26 10° NNW 19:21:42 76° W 19:27:52 10° S
Cosmos 1461 3.6 19:18:09 10° WSW 19:22:23 53° NW 19:23:10 46° N
Okean-O 4.1 19:25:58 26° N 19:25:58 26° N 19:27:59 10° N
SJ-6B 4.1 19:26:54 32° NNW 19:26:54 32° NNW 19:29:09 10° NNW
Lacrosse 5 rocket 2.6 19:28:32 10° WNW 19:31:18 32° WSW 19:31:18 32° WSW
Cosmos 1709 Rocket 3.9 19:34:03 10° N 19:40:14 84° W 19:43:12 33° S
CZ-4 R/B 3.2 19:37:09 10° SSW 19:40:49 31° W 19:44:28 10° NNW
Cosmos 44 Rocket 4.4 19:46:23 10° SW 19:49:10 36° SW 19:49:10 36° SW
Cosmos 2219 Rocket 2.3 19:49:11 10° SSW 19:54:10 68° WSW 19:54:10 68° WSW
Cosmos 2360 Rocket 3.3 19:49:46 10° WSW 19:55:05 41° NW 19:57:41 26° N
Cosmos 2278 Rocket 2.9 19:57:38 10° NNW 20:01:33 45° NNW 20:01:33 45° NNW
Cosmos 2333 Rocket 2.9 19:57:57 10° SW 20:03:28 51° NW 20:04:26 46° NNW
Cosmos 2322 Rocket 4.0 20:03:02 10° W 20:07:45 27° NW 20:10:38 18° N
Lacrosse 5 3.3 20:11:35 10° W 20:15:03 35° WNW 20:15:03 35° WNW
Cosmos 2369 Rocket 4.4 20:15:04 10° N 20:16:11 14° N 20:16:11 14° N
ATLAS 5 CENTAUR R/B 4.2 20:18:13 10° NNW 20:19:14 15° NNW 20:19:14 15° NNW
SL-16 R/B 4.5 20:19:05 10° W 20:23:01 19° NW 20:25:46 14° N
Cosmos 1943 Rocket 4.2 20:37:36 10° NNW 20:39:27 21° NNW 20:39:27 21° NNW
